星链-5555 (STARLINK-5555 )

导读

STARLINK-5555是美国SpaceX公司星链(Starlink)项目的卫星,于2023年1月26日发射升空,属于星链互联网卫星星座的组成部分。星链项目旨在通过大规模低轨卫星群,为全球提供高速低延迟的宽带互联网服务,该卫星入轨后,进一步扩充了星链星座的在轨规模,提升星座服务覆盖能力与网络稳定性。

基本信息
目录编号:
55386
目录名称:
STARLINK-5555
国际标识:
2023-013BH
轨道中心:
EARTH
卫星名称:
星链-5555
卫星全名:
星链-5555 (STARLINK-5555 )
卫星状态:
在轨 (已飞行1317 天)
发射日期:
2023-01-26 UTC
国别 :
美国 (US)
星等 :
--
轨道信息
数据来源 国际轨道数据
星历时间: 2026-09-04T05:27:43+0800
15小时前
查看轨道信息
半长轴: 6861.234km
偏心率: 0.0001513
轨道倾角: 43.002°
近地点辐角 268.538°
升交点赤经 32.010°
平近点角 91.530°
近地点: 482.058km
远地点: 484.136km
周期: 94.268分钟
每日圈数: 15.275641
详细信息
固有亮度:
5
最大亮度:
2.5
卫星平台:
Starlink v1.5
覆盖范围:
全球
运营商:
太空探索技术公司
运营商所在国:
美国
制造商(研发单位):
太空探索技术公司
制造商所在国:
美国
使用方式:
暂无
卫星简介
星链(Starlink)计划是由太空探索技术公司(SpaceX)提出的一个巨型低轨卫星互联网星座项目,计划在2019年至2024年间在太空搭建由约1.2万颗卫星组成的“星链”网络,其中1584颗将部署在地球上空550千米处的近地轨道,并从2020年开始工作。该卫星仍在工作。
2D轨道图
3D轨道图
轨道高度分析图
轨道倾角分析图
轨道综合分析图
查看轨道综合分析图
交会数据列表
事件ID 空间交会对象 最接近时刻(TCA) 交会距离 交会风险概率(CRP) 交会风险指数(CRI) 操作
CDM_260905-045605-538606-380821
2026-09-05T
04:56:50+0000
0.313 km
远距离
4.024227E-4 高风险 0.87
CDM_260905-065805-538605-842321
2026-09-05T
06:58:30+0000
0.547 km
远距离
1.100091E-4 高风险 0.76
CDM_260905-083205-538605-842321
2026-09-05T
08:32:39+0000
0.602 km
远距离
8.494066E-5 中风险 0.74
CDM_260906-105905-538606-652221
2026-09-06T
10:59:26+0000
0.686 km
远距离
3.553451E-5 中风险 0.66
CDM_260905-052405-538605-842321
2026-09-05T
05:24:20+0000
1.001 km
极远距离
1.69411E-5 中风险 0.6
CDM_260905-100605-538605-842321
2026-09-05T
10:06:49+0000
1.102 km
极远距离
1.213613E-5 中风险 0.57
CDM_260905-035005-538605-842321
2026-09-05T
03:50:11+0000
1.564 km
极远距离
3.756878E-6 低风险 0.46
CDM_260906-180305-538606-652221
2026-09-06T
18:03:07+0000
1.361 km
极远距离
3.570544E-6 低风险 0.46
CDM_260905-180402-612105-538621
CZ-4 DEB (26121)
2026-09-05T
18:04:14+0000
1.929 km
极远距离
2.054446E-6 低风险 0.41
CDM_260905-021605-538605-842321
2026-09-05T
02:16:01+0000
2.147 km
极远距离
1.600805E-6 低风险 0.39